STARLINK-11288, 61002

Orbit data source: Space-Track

STARLINK-11288, 61002 is a payload satellite owned by SpaceX/Seattle (US) in LEO that was launched on Thu, 05 Sep 2024 UTC via an FALCON 9 launch vehicle from the Air Force Eastern Test Range (AFETR). Payload-class satellites include a variety of spacecraft equipped with specific instruments for various scientific and technological missions. These include communications satellites like Starlink; space stations such as the ISS; scientific satellites like the Hubble; Earth observation satellites from companies like Planet Labs, Umbra, and HawkEye 360; GPS; miniature CubeSats for education and research; and military/defense satellites.

Loading next visibility...
Identifier
61002, 2024-158N
Orbit
LEO
Country
Flag of USUS
Related business
Manufacturer
SpaceX/Seattle
Mission
Operational Commercial Communications
Bus & Motor
STARLINK V2MD, Unknown motor
Mass
960 kg wet, ~910 kg dry
Launch date (UTC)
2024-09-05 (1 year ago)
Launch vehicle
FALCON 9
Launch site
Air Force Eastern Test Range (AFETR)
Object type
Payload
Rocket body
Debris
Shape & HBR
Box + 2 Pan, 18.1 m
Radar Cross Section
36.964 m², Large (>1 m²)

Expand to show TLE details & history
Last TLE update: 13 hours ago

TLE from 13 hours ago
0 STARLINK-11288
1 61002U 24158N   25353.19198653 -.00002163  00000-0 -12992-4 0  9990
2 61002  53.1595 317.9355 0001310 101.2476 258.8689 15.69716012 74946
Epoch: 2025-12-19T04:36Z
TLE epoch observation values (Epoch: 2025-12-19T04:36:27.636Z)
Latitude
-0.00002°
Longitude
160.78366°
Altitude
360.795 km
Speed
7.694 km/s
True Right ascension
21h 11m 44s
True Declination
0° 00' 00"
Sunlit
Object was in daylight at epoch
Visualization orbit readout
Latitude
Unknown
Longitude
Unknown
Altitude
Unknown
Speed
Unknown
Apparent Right ascension
Unknown
Apparent Declination
Unknown
Sunlit
N/A
Visualization observer readout
Local Sidereal Time
16:28:57
Azimuth
Unknown
Elevation
Unknown
Doppler factor
Unknown
Orbital elements
Apogee altitude
360.853 km
Perigee altitude
359.088 km
Semi-major axis
6,738.107 km
Eccentricity
0.00013
Inclination
53.1595°
RAAN
317.9355°
Arg. of periapsis
101.2476°
True anomaly
258.85417°
Mean anomaly
258.8689°
Eccentric anomaly
258.86154°
Mean motion
3.92407 °/min
Orbital period
91.74 mins
BSTAR
-0.000012992
Loading maneuver chart data...
Computing Atmospheric mass density...
Loading historical data...
Loading historical data...
Loading historical data...
Loading historical data...
Loading historical data...
Loading historical data...
Loading historical data...

Documentation

Showing up to 5 results
|